OCEAN WINNER , arrivant en petite rade de Toulon et se dirigeant vers Brégaillon a la Seyne sur Mer le 17 juin 2016
DAMIANO , peniche sur le Rhin au passage de Cologne (Allemagne) le 31 mai 2019
LONG VIKING , entrant en petite rade de Toulon et se dirigeant vers la Seyne sur Mer le 15 juillet 2018
BRO NORDBY , à quai dans la base navale de Toulon le 30 mars 2020
EPIC ST JONH , au mouillage dans le golfe de Fos sur Mer le 08 juin 2016
JANE S , appareillant de Fos sur Mer et transitant dans le golfe le 11 juillet 2016
SALINA M , entrant en petite rade de Toulon et se dirigeant vers la base navale le 06 octobre 2021
DUZGIT INTEGRITY , a quai dans la base navale de Toulon le 15 février 2017
MANISA GRETA , a quai à Toulon / Brégaillon le 17 juillet 2021
PAULINE RUS , arrivant au port de Marseille le 09 novenbre 2021
SDS GREEN , appareillant de la Seyne sur Mer le 29 juillet 2020
SHIPPER , A quai à Toulon / Brégaillon le 08 janvier 2022
FIDELITAS II , peniche sur le Rhin au passage de Cologne (Allemagne) le 31 mai 2019
BASILUZZO M , arrivant en petite rade de Toulon et se dirigeant vers la base navale , les moyens de remorquage de la base a ses cotés pour la manoeuvre d'accostage le 22 février 2022
CAP PINEDE , a quai à Toulon/Brégaillon le 26 mars 2021
GAZ REDSEA , a quai au port de Lavéra (13) le 08 juin 2016
EKATERINI , au mouillage dans le golfe de Fos sur Mer le 27 mai 2015
MANISA KRISTIN , à quai à Toulon /Brégaillon le 19 janvier 2021
CHEIKH BOUAMAMA , en transit dans le golfe de Fos sur Mer le 11 juillet 2016
LISA , en petite rade de Toulon et se dirigeant vers Toulon /Brégaillon le 28 février 2017
SUPER SERVANT 4 , navire de transport arrivant et au mouillage en petite rade de Toulon le 11 mars 2021
STAR CARE , a quai dans le port de Toulon/Brégaillon le 22 juillet 2021
MANISA BELEN , a quai à la Seyne sur Mer le 06mai 2022
JUMBO KINETIC, arrivant au mouillage dans la petite rade de Toulon le 27 juillet 2021
/image%2F0419228%2F20210922%2Fob_c0ef58_roro-cargos-1.jpg)
/image%2F0419228%2F20220602%2Fob_e01d0c_roro-cargos-9-7.jpg)
/image%2F0419228%2F20210922%2Fob_0e9af5_roro-cargos-3.jpg)
/image%2F0419228%2F20210927%2Fob_5570e1_aa.jpg)
/image%2F0419228%2F20210927%2Fob_7ecd3f_bb.jpg)
/image%2F0419228%2F20210927%2Fob_0a98fd_zz.jpg)
/image%2F0419228%2F20211003%2Fob_132d22_aa.jpg)
/image%2F0419228%2F20211003%2Fob_bcd4f5_zz.jpg)
/image%2F0419228%2F20211009%2Fob_3700b8_aa.jpg)
/image%2F0419228%2F20211009%2Fob_e835c9_bb.jpg)
/image%2F0419228%2F20211009%2Fob_17ffe4_zz.jpg)
/image%2F0419228%2F20211023%2Fob_3e0773_aa.jpg)
/image%2F0419228%2F20211023%2Fob_d3c040_bb.jpg)
/image%2F0419228%2F20211023%2Fob_a1fc23_zz.jpg)
/image%2F0419228%2F20211106%2Fob_031c0f_aa.jpg)
/image%2F0419228%2F20211106%2Fob_453086_bb.jpg)
/image%2F0419228%2F20211106%2Fob_2f5bd8_zz.jpg)
/image%2F0419228%2F20211122%2Fob_6098bf_aa.jpg)
/image%2F0419228%2F20211122%2Fob_bbedbb_bb.jpg)
/image%2F0419228%2F20211122%2Fob_ebfa32_zz.jpg)
/image%2F0419228%2F20211202%2Fob_333e4a_aa.jpg)
/image%2F0419228%2F20211202%2Fob_402ead_bb.jpg)
/image%2F0419228%2F20211204%2Fob_a489a7_zz.jpg)
/image%2F0419228%2F20211204%2Fob_f23114_aa.jpg)
/image%2F0419228%2F20211204%2Fob_32744e_bb.jpg)
/image%2F0419228%2F20211204%2Fob_da3e79_zz.jpg)
/image%2F0419228%2F20211209%2Fob_a2cd28_aa.jpg)
/image%2F0419228%2F20211209%2Fob_ee7866_bb.jpg)
/image%2F0419228%2F20211209%2Fob_457827_zz.jpg)
/image%2F0419228%2F20211222%2Fob_5b6005_aa.jpg)
/image%2F0419228%2F20211222%2Fob_d4027a_bb.jpg)
/image%2F0419228%2F20211222%2Fob_50f90e_zz.jpg)
/image%2F0419228%2F20220106%2Fob_a3a776_aa.jpg)
/image%2F0419228%2F20220106%2Fob_f677aa_bb.jpg)
/image%2F0419228%2F20220106%2Fob_3dc8bd_zz.jpg)
/image%2F0419228%2F20220201%2Fob_3fddc0_aa.jpg)
/image%2F0419228%2F20220201%2Fob_29e304_bb.jpg)
/image%2F0419228%2F20220201%2Fob_1bf39c_roro-cargos-copie.jpg)
/image%2F0419228%2F20220219%2Fob_baedc4_aa.jpg)
/image%2F0419228%2F20220219%2Fob_5f89d9_zz.jpg)
/image%2F0419228%2F20220225%2Fob_39fd21_aa.jpg)
/image%2F0419228%2F20220225%2Fob_c59234_bb.jpg)
/image%2F0419228%2F20220225%2Fob_9b3151_roro-cargos-copie.jpg)
/image%2F0419228%2F20220303%2Fob_fa56ff_aa.jpg)
/image%2F0419228%2F20220303%2Fob_448c9e_bb.jpg)
/image%2F0419228%2F20220303%2Fob_257ced_zz.jpg)
/image%2F0419228%2F20220313%2Fob_e0d9e4_aa.jpg)
/image%2F0419228%2F20220313%2Fob_31cf3b_bb.jpg)
/image%2F0419228%2F20220313%2Fob_95fb56_zz.jpg)
/image%2F0419228%2F20220321%2Fob_0f3a7c_aa.jpg)
/image%2F0419228%2F20220321%2Fob_dab020_bb.jpg)
/image%2F0419228%2F20220321%2Fob_ff4f4d_zz.jpg)
/image%2F0419228%2F20220405%2Fob_2af9d1_aa.jpg)
/image%2F0419228%2F20220405%2Fob_098c52_bb.jpg)
/image%2F0419228%2F20220405%2Fob_05b612_zz.jpg)
/image%2F0419228%2F20220411%2Fob_45f3d5_aa.jpg)
/image%2F0419228%2F20220411%2Fob_ea4bb4_bb.jpg)
/image%2F0419228%2F20220411%2Fob_79138e_zz.jpg)
/image%2F0419228%2F20220419%2Fob_95a94e_aa.jpg)
/image%2F0419228%2F20220419%2Fob_e3c0bd_bb.jpg)
/image%2F0419228%2F20220419%2Fob_9311c2_zz.jpg)
/image%2F0419228%2F20220507%2Fob_354c02_aa.jpg)
/image%2F0419228%2F20220507%2Fob_db24ff_bb.jpg)
/image%2F0419228%2F20220507%2Fob_42fc0a_zz.jpg)
/image%2F0419228%2F20220509%2Fob_a1344a_aa.jpg)
/image%2F0419228%2F20220509%2Fob_27bff1_bb.jpg)
/image%2F0419228%2F20220509%2Fob_6329e8_zz.jpg)
/image%2F0419228%2F20220529%2Fob_76d8e8_aa.jpg)
/image%2F0419228%2F20220529%2Fob_b1acf0_bb.jpg)
/image%2F0419228%2F20220529%2Fob_922b6c_zz.jpg)
/image%2F0419228%2F20220602%2Fob_4eed33_aa.jpg)
/image%2F0419228%2F20220602%2Fob_bb1b59_bb.jpg)
/image%2F0419228%2F20220602%2Fob_8fcf10_zz.jpg)